Track CUBEBUG 2 now! 10-day predictions CUBEBUG 2 is classified as:
1 39440U 13066AA 22142.84685736 .00002449 00000-0 33818-3 0 9999 2 39440 97.7239 101.4854 0077817 213.5843 146.0422 14.76938884456505